Location: *
(48.2928°N, 1.5896°W)
Time: 20:02:08
(UTC+00:00)

Daily predictions for brighter satellites

Satellite Brightness Start Highest point End
(mag) Time Altitude Azimuth Time Altitude Azimuth Time Altitude Azimuth
ATLAS CENTAUR R/B 3.0 18:49:59 10° WNW 18:54:36 73° SW 19:01:56 10° SE
Cosmos 2360 Rocket 2.2 18:51:30 10° SSW 18:57:08 74° ESE 19:02:46 10° NNE
Cosmos 1340 3.2 18:57:10 10° SSE 19:00:01 28° E 19:02:53 10° NNE
USA 186 3.0 18:59:42 10° SE 19:02:22 25° ENE 19:05:05 10° NNE
Meteor PRIRODA 3.5 18:59:24 10° SSE 19:02:39 56° ENE 19:05:54 10° N
Resurs 01 Rocket 2.4 18:59:26 10° SE 19:03:23 33° ENE 19:07:22 10° N
Cosmos 2322 Rocket 2.5 19:00:18 10° SSW 19:06:00 79° WNW 19:11:46 10° NNE
Cosmos 1459 Rocket 4.3 19:00:17 10° SSW 19:06:18 71° W 19:12:22 10° N
Helios 1A 3.1 19:05:40 10° NNE 19:09:37 48° E 19:13:32 10° S
TRACE 4.5 19:08:06 10° NNE 19:11:32 85° WNW 19:14:55 10° SSW
BlueWalker 3 2.5 19:08:06 10° WNW 19:11:45 46° NNE 19:15:23 10° E
ACS3 Solar Sail 2.8 19:06:35 10° ESE 19:12:01 31° ENE 19:17:28 10° N
Cosmos 44 Rocket 3.5 19:08:02 10° NNW 19:12:45 55° NE 19:17:22 10° SE
Cosmos 2333 Rocket 2.3 19:08:14 10° SSW 19:14:00 89° WNW 19:19:49 10° NNE
Okean-O 4.3 19:12:29 10° E 19:15:17 17° ENE 19:18:06 10° NNE
SL-08 R/B 3.4 19:12:09 10° NNE 19:17:05 76° ESE 19:22:00 10° S
ATLAS 3B R/B 3.6 19:09:46 10° NW 19:17:28 59° WSW 19:24:58 10° SSE
SAR-Lupe-2 4.1 19:14:10 10° S 19:17:42 62° WSW 19:21:16 10° NNW
Cosmos 2219 Rocket 2.2 19:12:28 10° S 19:18:02 59° ESE 19:23:37 10° NE
SKYMED 3 4.4 19:14:14 10° NNE 19:18:23 69° ESE 19:22:28 10° S
Meteor 1-5 Rocket 4.2 19:15:59 10° S 19:21:34 77° E 19:27:23 10° NNE
Cosmos 1626 2.5 19:18:55 10° NNW 19:21:52 52° W 19:24:47 10° S
NOSS 2-1 (D) 4.2 19:19:08 10° NNW 19:22:28 35° NE 19:26:15 12° ESE
BREEZE-M DEB (TANK) 2.0 19:21:09 10° SW 19:23:12 43° SSE 19:25:16 12° E
CSL-04 Rocket 4.0 19:18:30 10° SE 19:23:38 47° ENE 19:28:43 10° N
Cosmos 1842 4.2 19:22:23 10° NNE 19:25:26 25° ENE 19:27:54 13° ESE
SL-16 R/B 3.8 19:20:58 10° WSW 19:26:15 40° NW 19:31:36 10° NNE
USA 229 DEB 4.1 19:19:25 10° NW 19:26:52 86° SW 19:34:59 10° SE
USA 229 4.1 19:19:35 10° NW 19:27:02 86° SW 19:35:07 10° SE
CZ-4B R/B 3.8 19:24:53 10° S 19:29:34 65° WSW 19:34:20 10° NNW
SJ-6B 3.0 19:26:09 10° S 19:29:48 65° W 19:33:24 10° NNW
Timation 2 Rocket 4.3 19:24:49 10° NNW 19:31:04 73° WSW 19:37:33 10° SSE
Cosmos 1766 Rocket 4.0 19:27:53 10° SSE 19:31:54 39° E 19:35:59 10° NNE
Cosmos 1725 Rocket 4.4 19:27:38 10° SSW 19:33:46 68° W 19:39:58 10° N
USA 267 4.1 19:29:45 10° ENE 19:35:51 44° N 19:42:00 10° WNW
BREEZE-M R/B 3.7 19:32:09 10° W 19:36:09 85° N 19:49:01 10° E
Cosmos 2322 3.9 19:33:30 10° S 19:38:53 48° ESE 19:44:18 10° NE
USA 276 2.2 19:36:51 10° W 19:39:40 57° N 19:41:31 18° ENE
Cosmos 1066 Rocket 4.3 19:35:26 10° N 19:41:20 76° ENE 19:47:10 10° SSE
Cosmos 1400 Rocket 2.6 19:38:39 10° N 19:42:31 69° ENE 19:46:18 10° SSE
PSLV R/B 4.5 19:44:58 20° ESE 19:46:40 31° ENE 19:49:51 10° N
Cosmos 1707 3.2 19:43:46 10° N 19:47:04 35° ENE 19:48:45 22° SE
Cosmos 1315 Rocket 4.5 19:44:45 10° NNE 19:47:26 17° ENE 19:48:17 16° E
CZ-4 R/B 1.8 19:44:33 10° S 19:48:17 59° W 19:52:06 10° NNW
Cosmos 1726 1.5 19:46:17 10° SSW 19:49:06 75° W 19:51:56 10° N
Cosmos 1733 4.4 19:49:19 19° E 19:49:19 19° E 19:51:40 10° NE
Cosmos 1536 3.5 19:55:08 24° SE 19:56:31 31° E 19:59:55 10° NNE
Lacrosse 4 Rocket 1.5 19:52:58 10° NW 19:57:20 82° WSW 20:00:26 19° SSE
KORONAS-FOTON 3.7 19:53:44 10° N 19:57:24 62° ENE 19:59:46 21° SSE
COSMOS 2428 2.8 19:52:23 10° S 19:57:55 55° ESE 20:03:31 10° NE
Cosmos 1818 3.5 19:52:34 10° SSW 19:58:00 74° SE 20:03:30 10° NE
CSL-04 Debris 4.2 19:53:07 10° SSE 19:58:36 88° WSW 20:04:07 10° NNW
USA 308 3.7 19:57:57 10° NW 19:58:10 13° NW 19:58:10 13° NW
Nadezhda 4 Rocket 4.3 19:55:30 10° N 20:01:30 46° ENE 20:05:35 20° SE
Cosmos 1356 Rocket 3.6 19:57:34 10° N 20:01:40 51° ENE 20:03:51 25° SE
Meteor 1-4 Rocket 1.7 19:59:02 10° N 20:01:43 63° ENE 20:02:21 44° SE
Cosmos 1943 Rocket 2.9 19:58:39 10° NNW 20:03:46 37° NE 20:06:28 23° ESE
Cosmos 1674 2.6 20:02:18 10° NNW 20:05:39 66° W 20:08:23 14° S
Cosmos 841 Rocket 4.4 20:00:38 10° SW 20:05:42 51° WNW 20:10:45 10° NNE
Meteor 1-14 Rocket 4.1 20:00:31 10° S 20:06:00 67° E 20:11:30 10° NNE
Cosmos 1328 Rocket 3.6 20:02:32 10° NNW 20:06:51 77° W 20:11:04 10° S
Cosmos 1743 3.8 20:04:07 10° SSW 20:07:33 43° WNW 20:10:59 10° N
Cosmos 1513 Rocket 4.4 20:01:58 10° S 20:07:56 67° E 20:13:59 10° NNE
USA 59 Rocket 0.0 20:05:40 10° NW 20:09:26 77° NE 20:11:54 28° SE
Terra 2.9 20:09:10 23° E 20:10:25 27° ENE 20:14:20 10° N
Cosmos 1464 Rocket 4.1 20:05:24 10° SSE 20:11:30 55° E 20:17:42 10° NNE
Meteor 1-11 Rocket 4.1 20:09:42 18° SSE 20:13:31 42° E 20:18:43 10° NNE
Ariane Rocket 4.3 20:14:45 22° E 20:15:59 24° ENE 20:19:58 10° N
Cosmos 1125 Rocket 3.9 20:11:47 10° NNW 20:16:46 44° ENE 20:18:45 30° ESE
USA 290 2.2 20:16:08 10° NNW 20:19:23 60° ENE 20:19:43 56° E
Cosmos 2278 Rocket 2.2 20:14:28 10° NNW 20:20:08 68° ENE 20:22:57 30° SE
ERS-1 Rocket 3.5 20:19:35 31° ESE 20:21:11 39° ENE 20:25:51 10° N
BREEZE-M DEB (TANK) 3.9 20:18:50 10° W 20:21:50 74° N 20:26:06 21° E
CZ-4B R/B 3.8 20:16:31 10° S 20:21:55 56° W 20:27:15 10° NNW
Meteor 2-9 Rocket 4.5 20:20:43 30° SE 20:22:41 41° E 20:27:43 10° NNE
USA 306 3.4 20:21:24 10° SSW 20:23:21 30° S 20:23:21 30° S
NOSS 2-1 (C) 3.5 20:22:11 10° NW 20:25:57 78° SW 20:27:51 35° SSE
SPOT 5 2.7 20:24:19 33° SE 20:26:22 66° ENE 20:30:54 10° N
TSX-5 4.3 20:25:16 10° NW 20:28:13 39° WSW 20:29:08 31° SSW
Cosmos 2034 Rocket 4.1 20:26:34 23° SSE 20:30:17 52° E 20:36:16 10° NNE
Okean 3 Rocket 3.5 20:28:15 14° S 20:32:10 86° E 20:36:39 10° N
Aureole 1 4.1 20:29:28 10° NNW 20:32:22 71° NE 20:32:22 71° NE
USA 186 4.3 20:31:38 10° SW 20:34:06 20° W 20:36:35 10° NW
Cosmos 1072 Rocket 4.5 20:28:27 10° S 20:34:52 86° E 20:41:19 10° N
Okean O Rocket 2.2 20:31:48 18° S 20:34:55 56° W 20:39:18 10° NNW
NOSS 0 Rocket 3.8 20:32:14 10° SSW 20:38:25 68° ESE 20:44:38 10° NNE
Resurs 01 Rocket 3.4 20:35:56 10° SSW 20:39:48 30° W 20:43:44 10° NNW
USA 215 3.5 20:36:35 10° ENE 20:42:45 42° SE 20:48:51 10° SSW
Cosmos 2228 Rocket 4.5 20:43:16 10° NNE 20:46:31 25° ENE 20:46:31 25° ENE
MOS 1 Rocket 3.3 20:45:58 46° SSE 20:47:27 78° ENE 20:52:39 10° N
Cosmos 2237 Rocket 2.1 20:46:17 25° S 20:49:28 58° ESE 20:54:59 10° NE
BlueWalker 3 2.2 20:46:12 10° WNW 20:49:46 56° SW 20:49:46 56° SW
Okean-O 2.9 20:49:39 38° S 20:51:10 66° WSW 20:55:34 10° NNW
Cosmos 1515 Rocket 4.1 20:48:41 10° NNW 20:52:56 55° W 20:54:36 33° SSW
Aureole 3 Rocket 4.0 20:47:44 18° S 20:53:33 69° E 20:59:05 10° NNE
ACS3 Solar Sail 2.4 20:50:27 15° S 20:55:44 58° W 21:02:04 10° NNW
Sich 1 3.2 20:57:04 56° NE 20:57:04 56° NE 21:00:44 10° NNE
MetOp-B 4.3 20:59:08 36° S 21:01:18 70° WSW 21:06:40 10° NNW
NOSS 2-1 (E) 4.5 20:58:14 10° NW 21:02:02 42° SW 21:02:58 37° SSW
Cosmos 2219 Rocket 4.2 20:57:26 10° WSW 21:02:21 29° NW 21:07:17 10° NNE
BREEZE-M DEB (TANK) 3.9 20:49:35 10° W 21:08:38 83° N 21:10:46 41° E
SL-24 R/B 4.4 21:08:23 52° SSW 21:09:37 78° W 21:14:30 10° N
Cosmos 1500 Rocket 3.5 21:11:22 83° WNW 21:11:22 83° WNW 21:15:44 10° N
Cosmos 1743 Rocket 3.9 21:16:40 54° NNE 21:16:40 54° NNE 21:20:04 10° N
IRS-1C Rocket 4.2 21:14:37 54° SSW 21:15:45 73° WSW 21:21:03 10° NNW
Cosmos 1980 3.6 21:12:28 10° SSW 21:18:09 84° WNW 21:23:53 10° NNE
USA 267 3.3 21:16:20 46° E 21:18:23 72° NNE 21:24:56 10° NW
Cosmos 2369 Rocket 3.2 21:16:02 10° NNW 21:21:10 32° NE 21:21:39 32° ENE
Cosmos 2298 Rocket 3.9 21:16:46 10° NNW 21:22:06 79° ENE 21:22:14 78° E
Spot 2 Rocket 3.3 21:21:59 83° S 21:22:11 89° W 21:27:15 10° NNW
USA 32 4.3 21:17:53 10° NNW 21:23:05 65° W 21:24:12 51° SW
Cosmos 1315 Rocket 3.7 21:19:58 10° NNW 21:23:29 45° W 21:23:29 45° W
Cosmos 2150 Rocket 3.8 21:22:00 10° NNW 21:27:07 85° NNE 21:27:07 85° NNE
Cosmos 1570 Rocket 4.2 21:30:07 40° SW 21:32:00 68° WNW 21:37:17 10° NNE
Lacrosse 4 Rocket 4.3 21:34:07 10° W 21:34:47 10° WSW 21:35:27 10° WSW
COSMOS 2428 4.5 21:37:28 10° WSW 21:42:29 31° NW 21:47:34 10° NNE
SL-16 R/B 3.6 21:49:08 26° NE 21:49:08 26° NE 21:51:41 10° NE
NOSS 3-4 (A) 4.1 21:40:06 10° NW 21:46:38 55° NE 21:47:59 48° ENE
NOSS 3-4 (C) 4.1 21:40:12 10° NW 21:46:44 54° NE 21:48:05 48° ENE
Cosmos 1943 Rocket 2.9 21:42:24 10° NW 21:47:32 41° WSW 21:47:58 40° WSW
Terra 2.7 21:47:52 42° W 21:47:52 42° W 21:52:17 10° NNW
Cosmos 1092 Rocket 4.4 21:42:57 10° NNW 21:49:08 59° W 21:50:30 49° SW
Ariane Rocket 3.5 21:54:54 54° W 21:54:54 54° W 21:59:33 10° NNW
Cosmos 2266 Rocket 4.4 21:50:01 10° N 21:55:29 50° NE 21:55:29 50° NE
SPOT 3 Rocket 4.0 21:57:52 55° W 21:57:52 55° W 22:02:35 10° NNW
USA 59 Rocket 2.5 21:56:05 10° W 21:58:17 16° WSW 21:58:17 16° WSW
ERS-1 Rocket 4.3 21:59:30 30° WSW 22:00:00 31° W 22:04:27 10° NNW
Cosmos 1634 Rocket 4.2 22:01:43 56° WSW 22:02:44 65° WNW 22:09:03 10° N
Cosmos 2278 Rocket 4.0 21:59:28 10° NW 22:03:40 22° W 22:04:48 20° WSW
USA 215 3.3 22:19:30 10° NE 22:26:03 75° NNW 22:32:35 10° WSW
Cosmos 1656 Rocket 4.3 22:23:20 10° NNW 22:27:40 51° NW 22:27:40 51° NW
Cosmos 2237 Rocket 3.9 22:29:00 10° WSW 22:33:53 29° NW 22:38:46 10° NNE
Cosmos 2297 4.5 22:31:37 10° NNW 22:35:42 47° NW 22:35:42 47° NW
USA 267 4.3 23:03:41 35° W 23:03:41 35° W 23:07:53 10° WNW
Cosmos 2369 Rocket 3.5 22:59:54 10° NW 23:03:25 35° WNW 23:03:25 35° WNW
SL-16 R/B 3.6 23:30:57 33° NW 23:30:57 33° NW 23:35:39 10° NNE
